EW5545 Acquaviva Delle Fonti IT current weather conditions

sailwx.info

Wind from 201 at 4 knots gusting 6

Air temperature 11.7° C
Dewpoint 10.2° C

Last reported at 2019-Dec-15 23:05 UTC.
Time now 2019-Dec-15 23:57 UTC

Location: N 40°53' E 016°51'.
View on Google Maps.

See reports from other nearby stations

  
Tides and Currents Weather Stations Pressure Air Temp Water Temp Dewpoint Dewpoint Depression Visibility Wind Speed Wind Dir Waves Ship Positions
date/time (UTC)wind fromknots sea level pressurealtimeterstation pressurevisibilityair tempwater tempwave heightnotes
2019-Dec-15 23:05 201 4 gusting 6 11.7
2019-Dec-15 23:00 181 3 gusting 6 11.7
2019-Dec-15 22:55 192 3 gusting 6 11.7
2019-Dec-15 22:50 178 4 gusting 6 11.7
2019-Dec-15 22:45 189 3 gusting 5 11.7
2019-Dec-15 22:40 179 2 gusting 5 11.1
2019-Dec-15 22:35 177 2 gusting 5 11.1
2019-Dec-15 22:30 197 2 gusting 5 11.1
2019-Dec-15 22:25 177 3 gusting 6 11.1
2019-Dec-15 22:15 191 3 gusting 6 11.1
2019-Dec-15 22:05 190 3 gusting 6 11.1
2019-Dec-15 22:00 169 2 gusting 6 11.1
2019-Dec-15 21:55 175 2 gusting 4 10.6
2019-Dec-15 21:50 185 2 gusting 6 10.6
2019-Dec-15 21:45 179 2 gusting 6 10.6
2019-Dec-15 21:40 189 2 gusting 5 10.6
2019-Dec-15 21:35 188 3 gusting 5 10.6
2019-Dec-15 21:30 186 2 gusting 5 10.6
2019-Dec-15 21:25 190 2 gusting 5 10.6
2019-Dec-15 21:20 195 2 gusting 5 10.6
2019-Dec-15 21:15 182 3 gusting 5 10.6
2019-Dec-15 21:05 184 3 gusting 6 10.6
2019-Dec-15 21:00 193 2 gusting 6 10.6
2019-Dec-15 20:55 189 1 gusting 6 10.6
2019-Dec-15 20:50 183 2 gusting 6 10.0
2019-Dec-15 20:45 177 2 gusting 4 10.0
2019-Dec-15 20:40 179 2 gusting 4 10.0
2019-Dec-15 20:35 185 1 gusting 4 10.0
2019-Dec-15 20:30 185 1 gusting 2 10.6
2019-Dec-15 20:25 188 1 gusting 2 10.6
2019-Dec-15 20:15 181 2 gusting 6 10.6
2019-Dec-15 20:05 172 2 gusting 5 10.6
2019-Dec-15 19:55 181 2 gusting 5 10.6
2019-Dec-15 19:50 175 2 gusting 6 10.6
2019-Dec-15 19:45 186 2 gusting 6 10.6
2019-Dec-15 19:35 168 1 gusting 4 10.6
2019-Dec-15 19:30 189 2 gusting 4 10.6
2019-Dec-15 19:25 177 2 gusting 5 10.6
2019-Dec-15 19:20 184 2 gusting 5 10.6
2019-Dec-15 19:15 189 1 gusting 4 10.6
2019-Dec-15 19:05 163 3 gusting 6 10.6
2019-Dec-15 19:00 178 2 gusting 6 10.6
2019-Dec-15 18:55 173 3 gusting 6 10.6
2019-Dec-15 18:50 158 3 gusting 7 10.6
2019-Dec-15 18:45 190 4 gusting 7 10.6
2019-Dec-15 18:40 184 6 gusting 10 11.1
2019-Dec-15 18:35 188 6 gusting 10 11.1
2019-Dec-15 18:30 180 6 gusting 10 11.1
2019-Dec-15 18:25 189 5 gusting 8 11.1
2019-Dec-15 18:20 173 3 gusting 7 11.1
2019-Dec-15 18:15 181 3 gusting 6 11.1
2019-Dec-15 18:05 176 3 gusting 6 11.1
2019-Dec-15 18:00 182 2 gusting 6 11.1
2019-Dec-15 17:55 194 2 gusting 7 11.1
2019-Dec-15 17:50 179 2 gusting 6 11.1
2019-Dec-15 17:45 180 2 gusting 4 10.6
2019-Dec-15 17:40 175 1 gusting 2 11.1
2019-Dec-15 17:35 190 3 gusting 6 11.1
2019-Dec-15 17:30 190 4 gusting 6 11.1
2019-Dec-15 17:25 176 4 gusting 6 10.6
2019-Dec-15 17:20 190 4 gusting 6 10.6
2019-Dec-15 17:15 193 2 gusting 6 10.6
2019-Dec-15 17:10 193 2 gusting 5 10.6
2019-Dec-15 17:05 189 2 gusting 4 10.6
2019-Dec-15 17:00 201 1 gusting 2 10.6
2019-Dec-15 16:55 209 0 gusting 2 10.6
2019-Dec-15 16:50 172 0 gusting 1 10.6
2019-Dec-15 16:45 195 0 gusting 1 11.1
2019-Dec-15 16:35 180 2 gusting 4 11.1
2019-Dec-15 16:30 193 2 gusting 4 11.1
2019-Dec-15 16:25 190 1 gusting 2 11.1
2019-Dec-15 16:20 196 0 gusting 2 11.1
2019-Dec-15 16:15 189 11.1
2019-Dec-15 16:05 190 0 gusting 2 11.7
2019-Dec-15 15:55 194 1 gusting 2 11.7
2019-Dec-15 15:50 190 1 gusting 2 12.2
2019-Dec-15 15:45 190 0 gusting 2 12.2
2019-Dec-15 15:40 187 0 gusting 2 12.2
2019-Dec-15 15:35 190 0 gusting 2 12.2
2019-Dec-15 15:30 170 1 gusting 2 12.8
2019-Dec-15 15:25 187 1 gusting 2 12.8
2019-Dec-15 15:20 181 1 gusting 4 12.8
2019-Dec-15 15:15 168 1 gusting 4 13.3
2019-Dec-15 15:10 206 0 gusting 2 13.9
2019-Dec-15 15:05 154 0 gusting 2 13.9
2019-Dec-15 15:00 151 1 gusting 2 13.9
2019-Dec-15 14:55 155 2 gusting 6 13.9
2019-Dec-15 14:50 149 2 gusting 6 14.4
2019-Dec-15 14:45 147 1 gusting 5 14.4
2019-Dec-15 14:40 139 1 gusting 5 14.4
2019-Dec-15 14:35 150 2 gusting 5 15.0
2019-Dec-15 14:30 200 2 gusting 5 15.6
2019-Dec-15 14:25 145 2 gusting 4 16.1
2019-Dec-15 14:20 145 0 gusting 2 16.7
2019-Dec-15 14:15 150 0 gusting 5 17.2
2019-Dec-15 14:05 181 2 gusting 4 18.3
2019-Dec-15 13:55 152 0 gusting 2 18.3
2019-Dec-15 13:50 137 1 gusting 2 18.3
2019-Dec-15 13:45 173 2 gusting 6 17.8
2019-Dec-15 13:40 189 3 gusting 6 17.8
2019-Dec-15 13:35 174 3 gusting 7 17.2
2019-Dec-15 13:30 177 5 gusting 6 17.2
2019-Dec-15 13:25 179 2 gusting 6 17.2
2019-Dec-15 13:20 172 2 gusting 6 17.2
2019-Dec-15 13:15 183 3 gusting 6 17.2
2019-Dec-15 13:10 194 5 gusting 7 17.2
2019-Dec-15 13:05 185 5 gusting 10 17.2
2019-Dec-15 13:00 185 5 gusting 8 16.7
2019-Dec-15 12:55 187 6 gusting 10 16.7
2019-Dec-15 12:50 192 5 gusting 6 16.7
2019-Dec-15 12:45 180 6 gusting 10 16.7
2019-Dec-15 12:40 202 5 gusting 10 16.7
2019-Dec-15 12:35 190 6 gusting 10 16.7
2019-Dec-15 12:30 201 4 gusting 7 16.7
2019-Dec-15 12:25 175 6 gusting 10 16.7
2019-Dec-15 12:20 184 6 gusting 10 16.7
2019-Dec-15 12:15 194 6 gusting 10 16.7
2019-Dec-15 12:10 173 7 gusting 11 16.7
2019-Dec-15 12:05 179 5 gusting 10 16.7
2019-Dec-15 11:55 193 6 gusting 10 16.7
2019-Dec-15 11:50 185 6 gusting 10 16.7
2019-Dec-15 11:45 188 5 gusting 10 16.7
2019-Dec-15 11:40 184 5 gusting 8 16.7
2019-Dec-15 11:35 195 5 gusting 8 16.7
2019-Dec-15 11:30 185 5 gusting 8 17.2
2019-Dec-15 11:25 200 4 gusting 10 17.2
2019-Dec-15 11:20 170 6 gusting 10 17.2
2019-Dec-15 11:15 189 5 gusting 10 17.2
2019-Dec-15 11:10 171 6 gusting 12 17.2
2019-Dec-15 11:05 188 6 gusting 13 16.7
2019-Dec-15 11:00 191 6 gusting 13 17.2
2019-Dec-15 10:55 198 6 gusting 10 16.7
2019-Dec-15 10:50 169 5 gusting 12 16.7
2019-Dec-15 10:45 192 4 gusting 8 16.7
2019-Dec-15 10:40 159 2 gusting 6 16.7
2019-Dec-15 10:30 180 2 gusting 6 16.1
2019-Dec-15 10:25 183 1 gusting 5 16.1
2019-Dec-15 10:20 163 3 gusting 6 16.1
2019-Dec-15 10:15 191 2 gusting 6 15.6
2019-Dec-15 10:10 176 3 gusting 7 15.6
2019-Dec-15 10:05 164 4 gusting 8 15.6
2019-Dec-15 10:00 154 2 gusting 7 15.6
2019-Dec-15 09:55 143 4 gusting 7 15.0
2019-Dec-15 09:50 179 6 gusting 10 15.0
2019-Dec-15 09:45 174 6 gusting 11 15.0
2019-Dec-15 09:40 189 4 gusting 8 15.0
2019-Dec-15 09:35 188 5 gusting 7 14.4
2019-Dec-15 09:30 186 4 gusting 8 14.4
2019-Dec-15 09:25 197 5 gusting 8 13.9
2019-Dec-15 09:20 187 7 gusting 11 13.9
2019-Dec-15 09:15 196 5 gusting 10 13.9
2019-Dec-15 09:10 198 5 gusting 8 13.9
2019-Dec-15 09:05 199 5 gusting 8 13.9
2019-Dec-15 09:00 181 2 gusting 6 13.3
2019-Dec-15 08:55 193 3 gusting 5 12.8
2019-Dec-15 08:50 175 1 gusting 5 12.8
2019-Dec-15 08:45 191 4 gusting 6 12.2
2019-Dec-15 08:40 190 3 gusting 6 12.2
2019-Dec-15 08:35 195 3 gusting 5 11.7
2019-Dec-15 08:30 192 2 gusting 4 11.7
2019-Dec-15 08:25 187 1 gusting 5 12.2
2019-Dec-15 08:20 174 1 gusting 5 12.2
2019-Dec-15 08:15 173 1 gusting 2 12.2
2019-Dec-15 08:10 150 2 gusting 5 12.2
2019-Dec-15 08:05 174 2 gusting 5 12.2
2019-Dec-15 07:55 185 1 gusting 6 12.2
2019-Dec-15 07:50 159 1 gusting 2 11.7
2019-Dec-15 07:45 165 1 gusting 2 11.1
2019-Dec-15 07:40 178 0 gusting 2 10.6
2019-Dec-15 07:35 193 2 gusting 5 10.6
2019-Dec-15 07:30 190 2 gusting 6 10.0
2019-Dec-15 07:25 187 2 gusting 6 10.0
2019-Dec-15 07:20 188 4 gusting 6 9.4
2019-Dec-15 07:15 194 3 gusting 7 8.9
2019-Dec-15 07:10 189 4 gusting 6 8.3
2019-Dec-15 07:05 188 4 gusting 6 8.3
2019-Dec-15 07:00 187 4 gusting 6 8.3
2019-Dec-15 06:55 182 2 gusting 4 7.8
2019-Dec-15 06:50 172 7.8
2019-Dec-15 06:40 205 7.8
2019-Dec-15 06:35 205 7.2
2019-Dec-15 06:30 205 7.2
2019-Dec-15 06:25 188 7.2
2019-Dec-15 06:20 202 0 gusting 0 6.7
2019-Dec-15 06:15 193 6.7
2019-Dec-15 06:10 192 0 gusting 1 7.2
2019-Dec-15 06:05 194 7.2
2019-Dec-15 05:55 194 7.2
2019-Dec-15 05:50 194 7.8
2019-Dec-15 05:45 219 7.8
2019-Dec-15 05:40 219 7.8
2019-Dec-15 05:35 222 0 gusting 2 7.8
2019-Dec-15 05:30 226 1 gusting 1 7.8
2019-Dec-15 05:25 217 7.8
2019-Dec-15 05:20 214 0 gusting 1 7.2
2019-Dec-15 05:15 190 7.2
2019-Dec-15 05:10 190 7.8
2019-Dec-15 05:05 220 7.2
2019-Dec-15 05:00 192 0 gusting 1 7.2
2019-Dec-15 04:55 212 7.2
2019-Dec-15 04:50 211 7.8
2019-Dec-15 04:45 212 8.3
2019-Dec-15 04:40 212 8.3
2019-Dec-15 04:35 212 8.3
2019-Dec-15 04:30 217 0 gusting 0 8.3
2019-Dec-15 04:25 216 0 gusting 1 7.8
2019-Dec-15 04:20 218 0 gusting 1 7.8
2019-Dec-15 04:15 225 0 gusting 1 7.2
2019-Dec-15 04:05 221 0 gusting 2 7.2
2019-Dec-15 03:55 232 0 gusting 2 6.7
2019-Dec-15 03:50 229 1 gusting 2 6.7
2019-Dec-15 03:45 233 0 gusting 1 6.1
2019-Dec-15 03:40 225 0 gusting 1 6.1
2019-Dec-15 03:35 234 1 gusting 2 6.7
2019-Dec-15 03:30 241 0 gusting 1 6.1
2019-Dec-15 03:25 226 0 gusting 2 6.1
2019-Dec-15 03:15 224 0 gusting 1 6.1
2019-Dec-15 03:10 218 0 gusting 1 6.7
2019-Dec-15 03:05 219 6.1
2019-Dec-15 03:00 224 6.1
2019-Dec-15 02:55 224 0 gusting 1 5.6
2019-Dec-15 02:50 228 1 gusting 1 5.6
2019-Dec-15 02:45 236 0 gusting 1 5.6
2019-Dec-15 02:40 232 0 gusting 1 6.1
2019-Dec-15 02:35 223 1 gusting 1 6.1
2019-Dec-15 02:30 226 1 gusting 2 6.7
2019-Dec-15 02:25 224 0 gusting 1 6.7
2019-Dec-15 02:20 226 1 gusting 2 6.1
2019-Dec-15 02:15 224 1 gusting 2 6.7
2019-Dec-15 02:05 229 7.2
2019-Dec-15 01:55 237 0 gusting 1 7.8
2019-Dec-15 01:50 245 0 gusting 1 7.8
2019-Dec-15 01:45 238 0 gusting 2 7.8
2019-Dec-15 01:40 234 0 gusting 2 7.2
2019-Dec-15 01:35 226 0 gusting 1 7.2
2019-Dec-15 01:30 219 7.2
2019-Dec-15 01:25 234 0 gusting 0 8.9
2019-Dec-15 01:15 244 0 gusting 1 9.4
2019-Dec-15 01:10 248 0 gusting 1 9.4
2019-Dec-15 01:05 254 10.0
2019-Dec-15 01:00 256 0 gusting 1 10.0
2019-Dec-15 00:55 252 0 gusting 1 10.0
2019-Dec-15 00:50 250 10.0
2019-Dec-15 00:45 250 10.0
2019-Dec-15 00:40 256 0 gusting 1 10.0
2019-Dec-15 00:35 249 10.0
2019-Dec-15 00:30 250 0 gusting 1 10.0
2019-Dec-15 00:25 245 0 gusting 2 10.6
2019-Dec-15 00:20 255 0 gusting 1 10.6
2019-Dec-15 00:15 253 0 gusting 1 10.6
2019-Dec-15 00:10 254 10.6
2019-Dec-15 00:05 254 10.6
2019-Dec-14 23:55 257 10.0
2019-Dec-14 23:50 258 0 gusting 1 9.4
2019-Dec-14 23:45 248 0 gusting 1 9.4
2019-Dec-14 23:40 236 0 gusting 1 8.9
2019-Dec-14 23:35 226 0 gusting 2 8.9
2019-Dec-14 23:30 235 1 gusting 2 9.4
2019-Dec-14 23:25 248 0 gusting 1 10.0
2019-Dec-14 23:20 253 10.6
2019-Dec-14 23:15 264 0 gusting 1 10.0
2019-Dec-14 23:10 260 10.0
2019-Dec-14 23:05 258 10.0
2019-Dec-14 23:00 256 0 gusting 1 10.0
2019-Dec-14 22:55 256 0 gusting 2 10.0
2019-Dec-14 22:50 250 0 gusting 2 10.0
2019-Dec-14 22:45 253 0 gusting 1 9.4
2019-Dec-14 22:40 249 0 gusting 2 9.4
2019-Dec-14 22:35 251 0 gusting 1 8.9
2019-Dec-14 22:30 240 0 gusting 1 8.9
2019-Dec-14 22:25 237 0 gusting 0 8.9
2019-Dec-14 22:20 247 0 gusting 1 9.4
2019-Dec-14 22:15 250 0 gusting 1 9.4
2019-Dec-14 22:10 253 9.4
2019-Dec-14 22:05 243 0 gusting 1 9.4
2019-Dec-14 21:55 243 0 gusting 1 10.0
2019-Dec-14 21:50 248 0 gusting 1 10.0
2019-Dec-14 21:45 240 10.0
2019-Dec-14 21:40 251 10.0
2019-Dec-14 21:35 247 10.0
2019-Dec-14 21:30 294 9.4
2019-Dec-14 21:25 274 10.0
2019-Dec-14 21:20 286 10.0
2019-Dec-14 21:05 315 0 gusting 2 10.0
2019-Dec-14 21:00 293 0 gusting 2 9.4
2019-Dec-14 20:55 289 0 gusting 2 9.4
2019-Dec-14 20:50 256 0 gusting 2 9.4
2019-Dec-14 20:45 252 9.4
2019-Dec-14 20:40 301 9.4
2019-Dec-14 20:35 305 0 gusting 2 9.4
2019-Dec-14 20:30 342 9.4
2019-Dec-14 20:25 289 1 gusting 4 9.4
2019-Dec-14 20:20 326 0 gusting 2 9.4
2019-Dec-14 20:15 291 1 gusting 6 9.4
2019-Dec-14 20:10 282 0 gusting 6 9.4
2019-Dec-14 20:05 291 1 gusting 4 9.4
2019-Dec-14 19:55 256 1 gusting 4 9.4
2019-Dec-14 19:50 256 0 gusting 2 8.9
2019-Dec-14 19:45 240 0 gusting 2 9.4
2019-Dec-14 19:40 259 0 gusting 2 8.9
2019-Dec-14 19:35 258 8.9
2019-Dec-14 19:30 236 1 gusting 6 8.9
2019-Dec-14 19:25 267 0 gusting 5 8.3
2019-Dec-14 19:20 241 1 gusting 2 8.3
2019-Dec-14 19:15 248 0 gusting 2 8.3
2019-Dec-14 19:10 240 8.3
2019-Dec-14 19:05 282 0 gusting 2 8.3
2019-Dec-14 19:00 244 2 gusting 4 8.3
2019-Dec-14 18:55 233 0 gusting 1 7.8
2019-Dec-14 18:50 330 0 gusting 1 7.8
2019-Dec-14 18:45 327 7.8
2019-Dec-14 18:40 250 8.3
2019-Dec-14 18:35 249 8.3
2019-Dec-14 18:30 293 0 gusting 1 7.8
2019-Dec-14 18:25 243 7.8
2019-Dec-14 18:20 230 7.8
2019-Dec-14 18:15 227 8.3
2019-Dec-14 18:10 227 8.3
2019-Dec-14 18:05 264 8.9
2019-Dec-14 17:55 317 0 gusting 2 8.9
2019-Dec-14 17:50 358 0 gusting 4 8.9
2019-Dec-14 17:45 345 1 gusting 4 8.9
2019-Dec-14 17:40 314 1 gusting 4 9.4
2019-Dec-14 17:35 342 2 gusting 6 9.4
2019-Dec-14 17:30 313 1 gusting 5 9.4
2019-Dec-14 17:25 318 2 gusting 5 9.4
2019-Dec-14 17:20 336 3 gusting 6 9.4
2019-Dec-14 17:15 296 1 gusting 5 9.4
2019-Dec-14 17:10 310 1 gusting 5 9.4
2019-Dec-14 17:05 311 1 gusting 6 9.4
2019-Dec-14 17:00 326 1 gusting 6 9.4
2019-Dec-14 16:55 308 2 gusting 6 9.4
2019-Dec-14 16:50 291 1 gusting 6 9.4
2019-Dec-14 16:45 330 2 gusting 6 10.0
2019-Dec-14 16:40 349 2 gusting 6 10.0
2019-Dec-14 16:35 339 3 gusting 8 10.0
2019-Dec-14 16:30 339 2 gusting 8 10.0
2019-Dec-14 16:25 001 3 gusting 7 10.0
2019-Dec-14 16:20 306 2 gusting 6 10.0
2019-Dec-14 16:15 335 4 gusting 8 10.0
2019-Dec-14 16:10 333 3 gusting 7 10.0
2019-Dec-14 16:05 348 3 gusting 6 10.0
2019-Dec-14 15:55 323 2 gusting 10 10.6
2019-Dec-14 15:50 308 2 gusting 5 10.6
2019-Dec-14 15:45 337 2 gusting 8 10.6
2019-Dec-14 15:40 337 2 gusting 6 10.6
2019-Dec-14 15:35 005 4 gusting 8 10.6
2019-Dec-14 15:30 007 3 gusting 7 11.1
2019-Dec-14 15:25 328 3 gusting 7 11.1
2019-Dec-14 15:20 334 3 gusting 7 11.1
2019-Dec-14 15:15 345 3 gusting 8 11.7
2019-Dec-14 15:10 353 4 gusting 7 11.7
2019-Dec-14 15:05 003 4 gusting 7 11.7
2019-Dec-14 15:00 042 5 gusting 10 11.7
2019-Dec-14 14:55 025 5 gusting 12 12.2
2019-Dec-14 14:50 357 5 gusting 12 12.2
2019-Dec-14 14:45 011 5 gusting 10 12.2
2019-Dec-14 14:40 013 3 gusting 7 12.2
2019-Dec-14 14:35 016 4 gusting 13 12.2
2019-Dec-14 14:30 355 7 gusting 13 12.2
2019-Dec-14 14:25 324 7 gusting 12 12.2
2019-Dec-14 14:20 344 2 gusting 8 12.2
2019-Dec-14 14:15 004 7 gusting 14 12.2
2019-Dec-14 14:10 343 3 gusting 10 12.8
2019-Dec-14 14:05 335 5 gusting 8 12.8
2019-Dec-14 13:55 015 7 gusting 13 12.8
2019-Dec-14 13:50 352 5 gusting 15 12.8
2019-Dec-14 13:45 329 7 gusting 15 12.8
2019-Dec-14 13:40 003 7 gusting 15 12.8
2019-Dec-14 13:35 328 4 gusting 15 12.8
2019-Dec-14 13:30 029 6 gusting 14 12.8
2019-Dec-14 13:25 027 7 gusting 17 12.8
2019-Dec-14 13:20 350 6 gusting 14 12.8
2019-Dec-14 13:15 008 6 gusting 12 12.8
2019-Dec-14 13:10 331 6 gusting 12 12.8
2019-Dec-14 13:05 326 6 gusting 14 12.8
2019-Dec-14 13:00 335 5 gusting 12 12.8
2019-Dec-14 12:55 341 5 gusting 12 12.8
2019-Dec-14 12:50 323 7 gusting 17 12.2
2019-Dec-14 12:45 325 7 gusting 15 12.2
2019-Dec-14 12:40 002 6 gusting 15 12.2
2019-Dec-14 12:35 014 6 gusting 15 11.7
2019-Dec-14 12:30 358 7 gusting 17 11.7
2019-Dec-14 12:25 11.7
2019-Dec-14 12:20 332 5 gusting 13 11.7
2019-Dec-14 12:15 326 6 gusting 13 11.7
2019-Dec-14 12:10 300 8 gusting 17 11.7
2019-Dec-14 12:05 004 6 gusting 10 11.7
2019-Dec-14 12:00 347 6 gusting 13 11.7
2019-Dec-14 11:55 336 5 gusting 15 11.7
2019-Dec-14 11:50 332 5 gusting 17 11.7
2019-Dec-14 11:45 008 9 gusting 18 11.7
2019-Dec-14 11:40 342 8 gusting 22 11.7
2019-Dec-14 11:35 327 5 gusting 19 11.7
2019-Dec-14 11:30 349 8 gusting 20 11.7
2019-Dec-14 11:25 332 7 gusting 14 11.7
2019-Dec-14 11:20 354 8 gusting 17 11.7
2019-Dec-14 11:15 318 6 gusting 17 11.7
2019-Dec-14 11:10 11.7
2019-Dec-14 11:05 345 6 gusting 17 11.7
2019-Dec-14 11:00 326 6 gusting 17 11.7
2019-Dec-14 10:55 348 6 gusting 13 11.7
2019-Dec-14 10:50 315 6 gusting 18 11.7
2019-Dec-14 10:45 287 5 gusting 10 11.7
2019-Dec-14 10:35 352 6 gusting 12 11.7
2019-Dec-14 10:30 337 6 gusting 13 11.7
2019-Dec-14 10:25 327 7 gusting 17 11.7
2019-Dec-14 10:20 326 7 gusting 12 11.7
2019-Dec-14 10:15 11.7
2019-Dec-14 10:10 350 6 gusting 12 11.1
2019-Dec-14 10:05 331 7 gusting 13 11.1
2019-Dec-14 10:00 306 7 gusting 12 11.1
2019-Dec-14 09:55 312 8 gusting 20 11.1
2019-Dec-14 09:50 312 7 gusting 17 11.1
2019-Dec-14 09:45 298 5 gusting 13 10.6
2019-Dec-14 09:40 321 3 gusting 10 10.6
2019-Dec-14 09:35 312 6 gusting 15 10.0
2019-Dec-14 09:30 010 6 gusting 14 10.0
2019-Dec-14 09:25 321 6 gusting 14 10.0
2019-Dec-14 09:20 318 7 gusting 15 9.4
2019-Dec-14 09:05 305 6 gusting 15 8.9
2019-Dec-14 09:00 350 7 gusting 15 8.9
2019-Dec-14 08:55 340 5 gusting 11 8.9
2019-Dec-14 08:50 318 6 gusting 13 8.9
2019-Dec-14 08:45 340 6 gusting 14 8.9
2019-Dec-14 08:40 346 6 gusting 13 8.9
2019-Dec-14 08:35 292 5 gusting 12 8.9
2019-Dec-14 08:30 319 4 gusting 12 8.3
2019-Dec-14 08:25 351 7 gusting 15 8.3
2019-Dec-14 08:20 310 6 gusting 13 8.3
2019-Dec-14 08:15 303 5 gusting 10 8.3
2019-Dec-14 08:10 299 5 gusting 10 8.3
2019-Dec-14 08:05 322 5 gusting 10 7.8
2019-Dec-14 08:00 329 4 gusting 10 7.8
2019-Dec-14 07:55 300 4 gusting 10 7.8
2019-Dec-14 07:50 303 6 gusting 10 7.8
2019-Dec-14 07:45 317 3 gusting 7 7.2
2019-Dec-14 07:40 288 2 gusting 6 7.2
2019-Dec-14 07:35 018 1 gusting 6 7.2
2019-Dec-14 07:30 280 3 gusting 10 7.2
2019-Dec-14 07:25 279 4 gusting 10 7.2
2019-Dec-14 07:20 286 6 gusting 11 7.2
2019-Dec-14 07:15 275 4 gusting 12 7.2
2019-Dec-14 07:10 309 6 gusting 10 7.2
2019-Dec-14 07:05 300 5 gusting 10 7.2
2019-Dec-14 07:00 294 4 gusting 13 6.7
2019-Dec-14 06:55 312 3 gusting 13 6.7
2019-Dec-14 06:50 006 2 gusting 6 6.7
2019-Dec-14 06:45 270 2 gusting 8 6.1
2019-Dec-14 06:40 287 2 gusting 7 6.1
2019-Dec-14 06:35 248 1 gusting 5 6.1
2019-Dec-14 06:30 285 3 gusting 13 6.1
2019-Dec-14 06:25 252 5 gusting 13 5.6
2019-Dec-14 06:20 250 5 gusting 10 5.6
2019-Dec-14 06:15 253 7 gusting 12 6.1
2019-Dec-14 06:10 256 3 gusting 8 6.1
2019-Dec-14 06:05 253 4 gusting 8 6.1
2019-Dec-14 06:00 224 3 gusting 8 6.1
2019-Dec-14 05:55 236 2 gusting 7 6.1
2019-Dec-14 05:50 247 4 gusting 8 6.1
2019-Dec-14 05:45 246 3 gusting 6 6.7
2019-Dec-14 05:40 260 4 gusting 8 6.7
2019-Dec-14 05:35 264 2 gusting 6 7.2
2019-Dec-14 05:30 264 2 gusting 10 7.2
2019-Dec-14 05:25 259 4 gusting 12 7.8
2019-Dec-14 05:20 258 6 gusting 13 7.8
2019-Dec-14 05:15 259 5 gusting 13 7.8
2019-Dec-14 05:10 252 6 gusting 12 7.8
2019-Dec-14 05:05 259 5 gusting 14 7.8
2019-Dec-14 05:00 255 4 gusting 7 7.2
2019-Dec-14 04:55 253 3 gusting 5 7.2
2019-Dec-14 04:50 247 1 gusting 5 6.7
2019-Dec-14 04:45 258 0 gusting 2 6.7
2019-Dec-14 04:40 244 0 gusting 2 7.2
2019-Dec-14 04:30 234 7.2
2019-Dec-14 04:25 324 7.2
2019-Dec-14 04:20 269 0 gusting 2 7.2
2019-Dec-14 04:15 298 0 gusting 2 7.2
2019-Dec-14 04:10 261 7.2
2019-Dec-14 04:05 267 0 gusting 2 7.2
2019-Dec-14 04:00 007 0 gusting 4 7.8
2019-Dec-14 03:55 326 0 gusting 2 7.8
2019-Dec-14 03:30 246 1 gusting 4 7.2
2019-Dec-14 03:25 291 7.2
2019-Dec-14 03:20 284 0 gusting 2 7.2
2019-Dec-14 03:15 280 0 gusting 4 7.2
2019-Dec-14 03:10 311 1 gusting 5 7.2
2019-Dec-14 03:05 255 0 gusting 5 7.2
2019-Dec-14 03:00 261 1 gusting 4 7.2
2019-Dec-14 02:55 286 1 gusting 6 7.2
2019-Dec-14 02:50 013 0 gusting 4 7.2
2019-Dec-14 02:45 255 0 gusting 2 7.2
2019-Dec-14 02:35 209 0 gusting 4 7.2
2019-Dec-14 02:30 265 1 gusting 5 7.2
2019-Dec-14 02:25 228 0 gusting 2 7.2
2019-Dec-14 02:20 286 1 gusting 6 7.2
2019-Dec-14 02:15 302 1 gusting 5 7.2
2019-Dec-14 02:10 270 1 gusting 4 7.2
2019-Dec-14 02:05 313 0 gusting 4 7.2
2019-Dec-14 02:00 280 0 gusting 4 7.2
2019-Dec-14 01:55 294 1 gusting 7 7.2
2019-Dec-14 01:50 255 1 gusting 4 7.2
2019-Dec-14 01:45 237 0 gusting 2 7.2
2019-Dec-14 01:40 243 1 gusting 5 7.2
2019-Dec-14 01:35 209 0 gusting 4 7.2
2019-Dec-14 01:30 359 2 gusting 6 7.2
2019-Dec-14 01:25 311 2 gusting 10 7.2
2019-Dec-14 01:20 293 2 gusting 8 7.2
2019-Dec-14 01:15 291 0 gusting 2 7.8
2019-Dec-14 01:05 234 2 gusting 13 7.8
2019-Dec-14 01:00 259 2 gusting 8 7.8
2019-Dec-14 00:55 258 2 gusting 7 7.8
2019-Dec-14 00:50 321 1 gusting 6 7.8
2019-Dec-14 00:45 272 1 gusting 5 7.8
2019-Dec-14 00:40 024 1 gusting 10 7.8
2019-Dec-14 00:35 314 3 gusting 7 7.8
2019-Dec-14 00:30 006 3 gusting 10 7.8
2019-Dec-14 00:25 329 4 gusting 7 7.8
2019-Dec-14 00:15 247 1 gusting 5 7.8
2019-Dec-14 00:05 260 3 gusting 8 7.2
2019-Dec-13 23:55 224 3 gusting 7 7.2
2019-Dec-13 23:50 235 2 gusting 8 7.2
2019-Dec-13 23:45 256 3 gusting 6 7.2
2019-Dec-13 23:40 250 2 gusting 6 7.2
2019-Dec-13 23:35 235 2 gusting 7 7.2
2019-Dec-13 23:25 233 4 gusting 11 7.8
2019-Dec-13 23:20 239 5 gusting 11 7.8
2019-Dec-13 23:15 237 3 gusting 7 7.8
2019-Dec-13 23:10 240 4 gusting 7 7.8
2019-Dec-13 23:05 257 6 gusting 13 7.8
2019-Dec-13 23:00 229 6 gusting 13 7.8